Time,TemperatureF,DewpointF,PressureIn,WindDirection,WindDirectionDegrees,WindSpeedMPH,WindSpeedGustMPH,Humidity,HourlyPrecipIn,Conditions,Clouds,dailyrainin,SoftwareType,DateUTC
2013-10-11 00:03:00,52.3,46.6,29.98,SE,146,0.0,1.0,81,0.00,,,0.00,WUHU216DAVISVP2,2013-10-11 07:03:00,
2013-10-11 00:08:00,52.5,46.5,29.98,SE,146,0.0,0.0,80,0.00,,,0.00,WUHU216DAVISVP2,2013-10-11 07:08:00,
2013-10-11 00:13:00,52.5,46.5,29.98,SE,146,0.0,0.0,80,0.00,,,0.00,WUHU216DAVISVP2,2013-10-11 07:13:00,
2013-10-11 00:18:00,52.3,46.4,29.98,SE,146,0.0,0.0,80,0.00,,,0.00,WUHU216DAVISVP2,2013-10-11 07:18:00,
2013-10-11 00:23:00,52.1,46.2,29.98,SE,146,2.0,2.0,80,0.00,,,0.00,WUHU216DAVISVP2,2013-10-11 07:23:00,
2013-10-11 00:28:00,52.2,46.6,29.98,SE,146,0.0,2.0,81,0.00,,,0.00,WUHU216DAVISVP2,2013-10-11 07:28:00,
2013-10-11 00:33:00,52.0,46.4,29.98,SE,146,0.0,1.0,81,0.00,,,0.00,WUHU216DAVISVP2,2013-10-11 07:33:00,
2013-10-11 00:38:00,51.6,46.3,29.98,SE,146,0.0,0.0,82,0.00,,,0.00,WUHU216DAVISVP2,2013-10-11 07:38:00,
2013-10-11 00:43:00,51.5,46.2,29.98,SE,146,0.0,0.0,82,0.00,,,0.00,WUHU216DAVISVP2,2013-10-11 07:43:00,
2013-10-11 00:48:00,51.3,46.0,29.98,SE,146,0.0,0.0,82,0.00,,,0.00,WUHU216DAVISVP2,2013-10-11 07:48:00,
2013-10-11 00:53:00,51.1,45.8,29.98,SE,146,0.0,0.0,82,0.00,,,0.00,WUHU216DAVISVP2,2013-10-11 07:53:00,
2013-10-11 00:58:00,51.0,46.0,29.98,SE,146,0.0,0.0,83,0.00,,,0.00,WUHU216DAVISVP2,2013-10-11 07:58:00,
2013-10-11 01:03:00,50.9,45.9,29.99,SE,146,0.0,0.0,83,0.00,,,0.00,WUHU216DAVISVP2,2013-10-11 08:03:00,
2013-10-11 01:08:00,50.9,45.9,29.99,SE,146,0.0,0.0,83,0.00,,,0.00,WUHU216DAVISVP2,2013-10-11 08:08:00,
2013-10-11 01:13:00,50.7,46.0,29.99,SE,146,0.0,0.0,84,0.00,,,0.00,WUHU216DAVISVP2,2013-10-11 08:13:00,
2013-10-11 01:18:00,50.4,45.4,29.99,SE,146,0.0,0.0,83,0.00,,,0.00,WUHU216DAVISVP2,2013-10-11 08:18:00,
2013-10-11 01:23:00,50.2,45.6,29.99,SE,146,0.0,0.0,84,0.00,,,0.00,WUHU216DAVISVP2,2013-10-11 08:23:00,
2013-10-11 01:28:00,50.1,45.5,29.99,SE,146,0.0,0.0,84,0.00,,,0.00,WUHU216DAVISVP2,2013-10-11 08:28:00,
2013-10-11 01:33:00,49.9,45.6,29.99,SE,146,0.0,0.0,85,0.00,,,0.00,WUHU216DAVISVP2,2013-10-11 08:33:00,
2013-10-11 01:38:00,49.7,45.4,29.99,SE,146,0.0,0.0,85,0.00,,,0.00,WUHU216DAVISVP2,2013-10-11 08:38:00,
2013-10-11 01:43:00,49.6,45.6,29.99,SE,146,0.0,0.0,86,0.00,,,0.00,WUHU216DAVISVP2,2013-10-11 08:43:00,
2013-10-11 01:48:00,49.6,45.6,29.99,SE,146,0.0,0.0,86,0.00,,,0.00,WUHU216DAVISVP2,2013-10-11 08:48:00,
2013-10-11 01:53:00,49.7,45.7,29.99,SE,146,0.0,0.0,86,0.00,,,0.00,WUHU216DAVISVP2,2013-10-11 08:53:00,
2013-10-11 01:58:00,49.4,45.1,29.99,SE,146,0.0,0.0,85,0.00,,,0.00,WUHU216DAVISVP2,2013-10-11 08:58:00,
2013-10-11 02:03:00,49.2,44.9,29.99,SE,146,0.0,0.0,85,0.00,,,0.00,WUHU216DAVISVP2,2013-10-11 09:03:00,
2013-10-11 02:08:00,49.1,45.1,29.99,SE,146,0.0,0.0,86,0.00,,,0.00,WUHU216DAVISVP2,2013-10-11 09:08:00,
2013-10-11 02:13:00,48.9,44.6,29.99,SE,146,0.0,0.0,85,0.00,,,0.00,WUHU216DAVISVP2,2013-10-11 09:13:00,
2013-10-11 02:18:00,48.8,44.8,29.99,SE,146,0.0,0.0,86,0.00,,,0.00,WUHU216DAVISVP2,2013-10-11 09:18:00,
2013-10-11 02:23:00,48.6,44.6,29.99,SE,146,0.0,0.0,86,0.00,,,0.00,WUHU216DAVISVP2,2013-10-11 09:23:00,
2013-10-11 02:28:00,48.4,44.4,29.99,SE,146,0.0,0.0,86,0.00,,,0.00,WUHU216DAVISVP2,2013-10-11 09:28:00,
2013-10-11 02:33:00,48.2,44.5,29.99,SE,146,0.0,0.0,87,0.00,,,0.00,WUHU216DAVISVP2,2013-10-11 09:33:00,
2013-10-11 02:38:00,48.1,44.4,29.99,SE,146,0.0,1.0,87,0.00,,,0.00,WUHU216DAVISVP2,2013-10-11 09:38:00,
2013-10-11 02:43:00,48.0,44.6,29.99,SE,146,0.0,1.0,88,0.00,,,0.00,WUHU216DAVISVP2,2013-10-11 09:43:00,
2013-10-11 02:48:00,47.8,44.1,29.98,SE,146,0.0,0.0,87,0.00,,,0.00,WUHU216DAVISVP2,2013-10-11 09:48:00,
2013-10-11 02:53:00,47.4,43.7,29.98,SE,146,0.0,0.0,87,0.00,,,0.00,WUHU216DAVISVP2,2013-10-11 09:53:00,
2013-10-11 02:58:00,47.3,43.9,29.98,SE,146,0.0,0.0,88,0.00,,,0.00,WUHU216DAVISVP2,2013-10-11 09:58:00,
2013-10-11 03:03:00,47.4,44.0,29.99,SE,146,0.0,0.0,88,0.00,,,0.00,WUHU216DAVISVP2,2013-10-11 10:03:00,
2013-10-11 03:08:00,47.4,44.3,29.99,SE,146,0.0,0.0,89,0.00,,,0.00,WUHU216DAVISVP2,2013-10-11 10:08:00,
2013-10-11 03:13:00,47.5,44.4,29.99,SE,146,0.0,0.0,89,0.00,,,0.00,WUHU216DAVISVP2,2013-10-11 10:13:00,
2013-10-11 03:18:00,47.5,44.1,29.98,SE,146,0.0,0.0,88,0.00,,,0.00,WUHU216DAVISVP2,2013-10-11 10:18:00,
2013-10-11 03:23:00,47.6,44.2,29.98,SE,146,0.0,0.0,88,0.00,,,0.00,WUHU216DAVISVP2,2013-10-11 10:23:00,
2013-10-11 03:28:00,47.6,44.2,29.98,SE,146,0.0,0.0,88,0.00,,,0.00,WUHU216DAVISVP2,2013-10-11 10:28:00,
2013-10-11 03:33:00,47.5,44.1,29.98,SE,146,0.0,0.0,88,0.00,,,0.00,WUHU216DAVISVP2,2013-10-11 10:33:00,
2013-10-11 03:38:00,47.2,43.5,29.98,SE,146,0.0,0.0,87,0.00,,,0.00,WUHU216DAVISVP2,2013-10-11 10:38:00,
2013-10-11 03:43:00,47.0,43.6,29.99,SE,146,0.0,0.0,88,0.00,,,0.00,WUHU216DAVISVP2,2013-10-11 10:43:00,
2013-10-11 03:48:00,47.0,43.6,29.99,SE,146,0.0,0.0,88,0.00,,,0.00,WUHU216DAVISVP2,2013-10-11 10:48:00,
2013-10-11 03:53:00,47.0,43.9,29.99,SE,146,0.0,0.0,89,0.00,,,0.00,WUHU216DAVISVP2,2013-10-11 10:53:00,
2013-10-11 03:58:00,47.1,44.0,29.99,SE,146,0.0,0.0,89,0.00,,,0.00,WUHU216DAVISVP2,2013-10-11 10:58:00,
2013-10-11 04:03:00,47.0,43.9,29.99,SE,146,0.0,0.0,89,0.00,,,0.00,WUHU216DAVISVP2,2013-10-11 11:03:00,
2013-10-11 04:08:00,47.1,44.0,29.99,SE,146,0.0,0.0,89,0.00,,,0.00,WUHU216DAVISVP2,2013-10-11 11:08:00,
2013-10-11 04:13:00,46.9,43.8,29.99,SE,146,0.0,0.0,89,0.00,,,0.00,WUHU216DAVISVP2,2013-10-11 11:13:00,
2013-10-11 04:18:00,46.8,43.7,29.99,SE,146,0.0,0.0,89,0.00,,,0.00,WUHU216DAVISVP2,2013-10-11 11:18:00,
2013-10-11 04:23:00,46.9,43.8,29.99,SE,146,0.0,0.0,89,0.00,,,0.00,WUHU216DAVISVP2,2013-10-11 11:23:00,
2013-10-11 04:28:00,47.0,43.9,30.00,SE,146,0.0,0.0,89,0.00,,,0.00,WUHU216DAVISVP2,2013-10-11 11:28:00,
2013-10-11 04:33:00,47.2,44.1,30.00,SE,146,0.0,0.0,89,0.00,,,0.00,WUHU216DAVISVP2,2013-10-11 11:33:00,
2013-10-11 04:38:00,47.1,43.7,30.00,SE,146,0.0,0.0,88,0.00,,,0.00,WUHU216DAVISVP2,2013-10-11 11:38:00,
2013-10-11 04:43:00,46.8,43.4,30.00,SE,146,0.0,0.0,88,0.00,,,0.00,WUHU216DAVISVP2,2013-10-11 11:43:00,
2013-10-11 04:48:00,46.6,43.2,30.00,SE,146,0.0,2.0,88,0.00,,,0.00,WUHU216DAVISVP2,2013-10-11 11:48:00,
2013-10-11 04:53:00,46.7,43.3,30.00,SE,146,0.0,2.0,88,0.00,,,0.00,WUHU216DAVISVP2,2013-10-11 11:53:00,
2013-10-11 04:58:00,46.9,43.5,30.00,SE,146,0.0,0.0,88,0.00,,,0.00,WUHU216DAVISVP2,2013-10-11 11:58:00,
2013-10-11 05:03:00,46.7,44.5,30.00,SE,146,0.0,0.0,92,0.00,,,0.00,WUHU216DAVISVP2,2013-10-11 12:03:00,
2013-10-11 05:08:00,46.7,43.3,30.01,SE,146,0.0,0.0,88,0.00,,,0.00,WUHU216DAVISVP2,2013-10-11 12:08:00,
2013-10-11 05:13:00,46.6,43.5,30.01,SE,146,0.0,0.0,89,0.00,,,0.00,WUHU216DAVISVP2,2013-10-11 12:13:00,
2013-10-11 05:18:00,46.5,43.4,30.01,SE,146,0.0,0.0,89,0.00,,,0.00,WUHU216DAVISVP2,2013-10-11 12:18:00,
2013-10-11 05:23:00,46.3,42.9,30.01,SE,146,0.0,0.0,88,0.00,,,0.00,WUHU216DAVISVP2,2013-10-11 12:23:00,
2013-10-11 05:28:00,46.0,42.6,30.01,SE,146,0.0,0.0,88,0.00,,,0.00,WUHU216DAVISVP2,2013-10-11 12:28:00,
2013-10-11 05:33:00,45.9,42.5,30.01,SE,146,0.0,0.0,88,0.00,,,0.00,WUHU216DAVISVP2,2013-10-11 12:33:00,
2013-10-11 05:38:00,45.9,42.8,30.01,SE,146,0.0,0.0,89,0.00,,,0.00,WUHU216DAVISVP2,2013-10-11 12:38:00,
2013-10-11 05:43:00,45.9,42.8,30.01,SE,146,0.0,0.0,89,0.00,,,0.00,WUHU216DAVISVP2,2013-10-11 12:43:00,
2013-10-11 05:48:00,45.8,42.7,30.01,SE,146,0.0,0.0,89,0.00,,,0.00,WUHU216DAVISVP2,2013-10-11 12:48:00,
2013-10-11 05:53:00,45.7,42.9,30.01,SE,146,0.0,0.0,90,0.00,,,0.00,WUHU216DAVISVP2,2013-10-11 12:53:00,
2013-10-11 05:58:00,45.6,42.8,30.02,SE,146,0.0,0.0,90,0.00,,,0.00,WUHU216DAVISVP2,2013-10-11 12:58:00,
2013-10-11 06:03:00,45.7,42.9,30.02,SE,146,0.0,0.0,90,0.00,,,0.00,WUHU216DAVISVP2,2013-10-11 13:03:00,
2013-10-11 06:08:00,45.8,43.0,30.02,SE,146,0.0,0.0,90,0.00,,,0.00,WUHU216DAVISVP2,2013-10-11 13:08:00,
2013-10-11 06:13:00,45.9,43.1,30.02,SE,146,0.0,0.0,90,0.00,,,0.00,WUHU216DAVISVP2,2013-10-11 13:13:00,
2013-10-11 06:18:00,46.1,43.3,30.02,SE,146,0.0,0.0,90,0.00,,,0.00,WUHU216DAVISVP2,2013-10-11 13:18:00,
2013-10-11 06:23:00,46.1,43.3,30.02,SE,146,0.0,0.0,90,0.00,,,0.00,WUHU216DAVISVP2,2013-10-11 13:23:00,
2013-10-11 06:28:00,46.0,43.2,30.02,SE,146,0.0,0.0,90,0.00,,,0.00,WUHU216DAVISVP2,2013-10-11 13:28:00,
2013-10-11 06:33:00,46.1,43.3,30.02,SE,146,0.0,0.0,90,0.00,,,0.00,WUHU216DAVISVP2,2013-10-11 13:33:00,
2013-10-11 06:38:00,45.8,42.7,30.02,SE,146,0.0,0.0,89,0.00,,,0.00,WUHU216DAVISVP2,2013-10-11 13:38:00,
2013-10-11 06:43:00,45.7,42.6,30.02,SE,146,0.0,0.0,89,0.00,,,0.00,WUHU216DAVISVP2,2013-10-11 13:43:00,
2013-10-11 06:48:00,45.5,42.7,30.02,SE,146,0.0,0.0,90,0.00,,,0.00,WUHU216DAVISVP2,2013-10-11 13:48:00,
2013-10-11 06:53:00,45.7,42.9,30.02,SE,146,0.0,0.0,90,0.00,,,0.00,WUHU216DAVISVP2,2013-10-11 13:53:00,
2013-10-11 06:58:00,45.8,43.3,30.02,SE,146,0.0,0.0,91,0.00,,,0.00,WUHU216DAVISVP2,2013-10-11 13:58:00,
2013-10-11 07:03:00,45.6,42.8,30.03,SE,146,0.0,0.0,90,0.00,,,0.00,WUHU216DAVISVP2,2013-10-11 14:03:00,
2013-10-11 07:08:00,45.6,42.8,30.03,SE,146,0.0,0.0,90,0.00,,,0.00,WUHU216DAVISVP2,2013-10-11 14:08:00,
2013-10-11 07:13:00,45.2,42.2,30.03,SE,146,0.0,0.0,89,0.00,,,0.00,WUHU216DAVISVP2,2013-10-11 14:13:00,
2013-10-11 07:18:00,45.0,42.2,30.03,SE,146,0.0,0.0,90,0.00,,,0.00,WUHU216DAVISVP2,2013-10-11 14:18:00,
2013-10-11 07:23:00,44.5,41.4,30.03,SE,146,0.0,2.0,89,0.00,,,0.00,WUHU216DAVISVP2,2013-10-11 14:23:00,
2013-10-11 07:28:00,44.5,41.7,30.03,SE,146,0.0,2.0,90,0.00,,,0.00,WUHU216DAVISVP2,2013-10-11 14:28:00,
2013-10-11 07:33:00,44.8,42.0,30.03,SE,146,0.0,0.0,90,0.00,,,0.00,WUHU216DAVISVP2,2013-10-11 14:33:00,
2013-10-11 07:38:00,45.5,42.7,30.03,SE,146,0.0,0.0,90,0.00,,,0.00,WUHU216DAVISVP2,2013-10-11 14:38:00,
2013-10-11 07:43:00,46.2,43.4,30.03,SE,146,0.0,0.0,90,0.00,,,0.00,WUHU216DAVISVP2,2013-10-11 14:43:00,
2013-10-11 07:49:00,47.2,44.4,30.03,SE,146,0.0,0.0,90,0.00,,,0.00,WUHU216DAVISVP2,2013-10-11 14:49:00,
2013-10-11 07:54:00,47.9,44.8,30.03,SE,146,0.0,0.0,89,0.00,,,0.00,WUHU216DAVISVP2,2013-10-11 14:54:00,
2013-10-11 07:59:00,48.5,45.1,30.03,SE,146,0.0,0.0,88,0.00,,,0.00,WUHU216DAVISVP2,2013-10-11 14:59:00,
2013-10-11 08:04:00,49.1,45.1,30.03,SE,146,0.0,0.0,86,0.00,,,0.00,WUHU216DAVISVP2,2013-10-11 15:04:00,
2013-10-11 08:09:00,49.4,45.1,30.04,SE,146,0.0,0.0,85,0.00,,,0.00,WUHU216DAVISVP2,2013-10-11 15:09:00,
2013-10-11 08:14:00,49.9,45.6,30.04,SE,146,0.0,0.0,85,0.00,,,0.00,WUHU216DAVISVP2,2013-10-11 15:14:00,
2013-10-11 08:19:00,50.5,45.8,30.04,SE,146,1.0,2.0,84,0.00,,,0.00,WUHU216DAVISVP2,2013-10-11 15:19:00,
2013-10-11 08:24:00,51.0,46.3,30.04,SE,146,0.0,2.0,84,0.00,,,0.00,WUHU216DAVISVP2,2013-10-11 15:24:00,
2013-10-11 08:29:00,51.4,46.1,30.05,SE,146,0.0,1.0,82,0.00,,,0.00,WUHU216DAVISVP2,2013-10-11 15:29:00,
2013-10-11 08:34:00,52.1,46.8,30.05,SE,146,0.0,0.0,82,0.00,,,0.00,WUHU216DAVISVP2,2013-10-11 15:34:00,
2013-10-11 08:39:00,52.7,47.4,30.05,SE,146,0.0,0.0,82,0.00,,,0.00,WUHU216DAVISVP2,2013-10-11 15:39:00,
2013-10-11 08:44:00,53.4,47.4,30.05,SE,146,0.0,0.0,80,0.00,,,0.00,WUHU216DAVISVP2,2013-10-11 15:44:00,
2013-10-11 08:49:00,54.1,47.5,30.05,SE,146,0.0,0.0,78,0.00,,,0.00,WUHU216DAVISVP2,2013-10-11 15:49:00,
2013-10-11 08:54:00,54.5,47.8,30.05,SE,146,0.0,0.0,78,0.00,,,0.00,WUHU216DAVISVP2,2013-10-11 15:54:00,
2013-10-11 08:59:00,55.0,47.9,30.05,SE,146,0.0,0.0,77,0.00,,,0.00,WUHU216DAVISVP2,2013-10-11 15:59:00,
2013-10-11 09:04:00,55.5,48.1,30.05,SE,146,0.0,0.0,76,0.00,,,0.00,WUHU216DAVISVP2,2013-10-11 16:04:00,
2013-10-11 09:09:00,56.1,48.6,30.05,SE,146,0.0,0.0,76,0.00,,,0.00,WUHU216DAVISVP2,2013-10-11 16:09:00,
2013-10-11 09:14:00,56.5,48.3,30.05,SE,146,0.0,0.0,74,0.00,,,0.00,WUHU216DAVISVP2,2013-10-11 16:14:00,
2013-10-11 09:19:00,57.0,48.4,30.05,SE,146,0.0,0.0,73,0.00,,,0.00,WUHU216DAVISVP2,2013-10-11 16:19:00,
2013-10-11 09:24:00,57.7,49.5,30.05,SE,146,0.0,1.0,74,0.00,,,0.00,WUHU216DAVISVP2,2013-10-11 16:24:00,
2013-10-11 09:29:00,58.2,48.8,30.05,SE,146,0.0,2.0,71,0.00,,,0.00,WUHU216DAVISVP2,2013-10-11 16:29:00,
2013-10-11 09:34:00,58.4,49.0,30.05,SE,146,0.0,2.0,71,0.00,,,0.00,WUHU216DAVISVP2,2013-10-11 16:34:00,
2013-10-11 09:39:00,58.8,49.0,30.05,SE,146,0.0,0.0,70,0.00,,,0.00,WUHU216DAVISVP2,2013-10-11 16:39:00,
2013-10-11 09:44:00,59.9,50.1,30.05,SE,146,0.0,1.0,70,0.00,,,0.00,WUHU216DAVISVP2,2013-10-11 16:44:00,
2013-10-11 09:49:00,60.3,50.1,30.05,ENE,74,0.0,3.0,69,0.00,,,0.00,WUHU216DAVISVP2,2013-10-11 16:49:00,
2013-10-11 09:54:00,60.6,49.3,30.05,ENE,74,0.0,3.0,66,0.00,,,0.00,WUHU216DAVISVP2,2013-10-11 16:54:00,
2013-10-11 09:59:00,60.9,49.2,30.05,ENE,74,0.0,0.0,65,0.00,,,0.00,WUHU216DAVISVP2,2013-10-11 16:59:00,
2013-10-11 10:04:00,60.6,48.5,30.05,ENE,74,0.0,0.0,64,0.00,,,0.00,WUHU216DAVISVP2,2013-10-11 17:04:00,
2013-10-11 10:09:00,61.3,49.6,30.05,ENE,74,0.0,0.0,65,0.00,,,0.00,WUHU216DAVISVP2,2013-10-11 17:09:00,
2013-10-11 10:14:00,61.6,49.0,30.05,ENE,74,0.0,1.0,63,0.00,,,0.00,WUHU216DAVISVP2,2013-10-11 17:14:00,
2013-10-11 10:19:00,62.7,50.5,30.05,ENE,74,0.0,1.0,64,0.00,,,0.00,WUHU216DAVISVP2,2013-10-11 17:19:00,
2013-10-11 10:24:00,63.4,49.9,30.05,ENE,74,0.0,0.0,61,0.00,,,0.00,WUHU216DAVISVP2,2013-10-11 17:24:00,
2013-10-11 10:29:00,64.0,49.4,30.05,ENE,74,0.0,0.0,59,0.00,,,0.00,WUHU216DAVISVP2,2013-10-11 17:29:00,
2013-10-11 10:34:00,63.9,50.2,30.05,ENE,74,0.0,0.0,61,0.00,,,0.00,WUHU216DAVISVP2,2013-10-11 17:34:00,
2013-10-11 10:39:00,65.5,49.4,30.05,ENE,74,0.0,3.0,56,0.00,,,0.00,WUHU216DAVISVP2,2013-10-11 17:39:00,
2013-10-11 10:44:00,65.4,50.4,30.05,ENE,75,0.0,3.0,58,0.00,,,0.00,WUHU216DAVISVP2,2013-10-11 17:44:00,
2013-10-11 10:49:00,66.0,50.0,30.05,ENE,75,0.0,1.0,56,0.00,,,0.00,WUHU216DAVISVP2,2013-10-11 17:49:00,
2013-10-11 10:54:00,66.0,50.5,30.05,ENE,75,0.0,1.0,57,0.00,,,0.00,WUHU216DAVISVP2,2013-10-11 17:54:00,
2013-10-11 10:59:00,67.2,50.0,30.04,ENE,75,0.0,3.0,54,0.00,,,0.00,WUHU216DAVISVP2,2013-10-11 17:59:00,
2013-10-11 11:04:00,67.0,49.8,30.04,ENE,75,0.0,3.0,54,0.00,,,0.00,WUHU216DAVISVP2,2013-10-11 18:04:00,
2013-10-11 11:09:00,68.1,50.4,30.04,East,88,3.0,4.0,53,0.00,,,0.00,WUHU216DAVISVP2,2013-10-11 18:09:00,
2013-10-11 11:14:00,68.9,50.6,30.04,East,88,0.0,4.0,52,0.00,,,0.00,WUHU216DAVISVP2,2013-10-11 18:14:00,
2013-10-11 11:19:00,68.7,49.8,30.04,East,88,0.0,3.0,51,0.00,,,0.00,WUHU216DAVISVP2,2013-10-11 18:19:00,
2013-10-11 11:24:00,68.2,48.8,30.04,East,88,2.0,2.0,50,0.00,,,0.00,WUHU216DAVISVP2,2013-10-11 18:24:00,
2013-10-11 11:29:00,68.5,49.7,30.04,ESE,109,4.0,5.0,51,0.00,,,0.00,WUHU216DAVISVP2,2013-10-11 18:29:00,
2013-10-11 11:34:00,69.0,49.6,30.03,ESE,109,0.0,5.0,50,0.00,,,0.00,WUHU216DAVISVP2,2013-10-11 18:34:00,
2013-10-11 11:39:00,68.8,49.5,30.03,ESE,109,0.0,5.0,50,0.00,,,0.00,WUHU216DAVISVP2,2013-10-11 18:39:00,
2013-10-11 11:44:00,70.8,48.4,30.03,ESE,109,0.0,0.0,45,0.00,,,0.00,WUHU216DAVISVP2,2013-10-11 18:44:00,
2013-10-11 11:49:00,71.2,48.7,30.03,ESE,109,0.0,1.0,45,0.00,,,0.00,WUHU216DAVISVP2,2013-10-11 18:49:00,
2013-10-11 11:54:00,71.2,48.7,30.03,SE,142,0.0,6.0,45,0.00,,,0.00,WUHU216DAVISVP2,2013-10-11 18:54:00,
2013-10-11 11:59:00,70.2,48.4,30.02,SE,142,0.0,6.0,46,0.00,,,0.00,WUHU216DAVISVP2,2013-10-11 18:59:00,
2013-10-11 12:04:00,71.0,48.6,30.02,SE,142,0.0,1.0,45,0.00,,,0.00,WUHU216DAVISVP2,2013-10-11 19:04:00,
2013-10-11 12:09:00,71.1,48.7,30.02,WNW,301,0.0,6.0,45,0.00,,,0.00,WUHU216DAVISVP2,2013-10-11 19:09:00,
2013-10-11 12:14:00,70.6,48.2,30.02,WNW,301,1.0,6.0,45,0.00,,,0.00,WUHU216DAVISVP2,2013-10-11 19:14:00,
2013-10-11 12:19:00,71.2,48.1,30.02,WNW,300,0.0,4.0,44,0.00,,,0.00,WUHU216DAVISVP2,2013-10-11 19:19:00,
2013-10-11 12:24:00,71.2,48.1,30.02,WNW,300,0.0,4.0,44,0.00,,,0.00,WUHU216DAVISVP2,2013-10-11 19:24:00,
2013-10-11 12:29:00,71.9,47.5,30.01,WNW,300,0.0,1.0,42,0.00,,,0.00,WUHU216DAVISVP2,2013-10-11 19:29:00,
2013-10-11 12:34:00,72.6,47.5,30.01,WNW,300,0.0,1.0,41,0.00,,,0.00,WUHU216DAVISVP2,2013-10-11 19:34:00,
2013-10-11 12:39:00,72.6,47.5,30.01,WNW,297,3.0,4.0,41,0.00,,,0.00,WUHU216DAVISVP2,2013-10-11 19:39:00,
2013-10-11 12:44:00,72.3,47.8,30.00,WNW,297,0.0,5.0,42,0.00,,,0.00,WUHU216DAVISVP2,2013-10-11 19:44:00,
2013-10-11 12:49:00,73.8,47.9,30.00,South,173,0.0,5.0,40,0.00,,,0.00,WUHU216DAVISVP2,2013-10-11 19:49:00,
2013-10-11 12:54:00,73.7,47.8,30.00,South,173,0.0,1.0,40,0.00,,,0.00,WUHU216DAVISVP2,2013-10-11 19:54:00,
2013-10-11 12:59:00,73.4,47.5,30.00,South,173,0.0,2.0,40,0.00,,,0.00,WUHU216DAVISVP2,2013-10-11 19:59:00,
2013-10-11 13:04:00,72.8,46.3,30.00,South,173,0.0,2.0,39,0.00,,,0.00,WUHU216DAVISVP2,2013-10-11 20:04:00,
2013-10-11 13:09:00,73.9,48.6,30.00,East,97,0.0,4.0,41,0.00,,,0.00,WUHU216DAVISVP2,2013-10-11 20:09:00,
2013-10-11 13:14:00,75.1,48.3,30.00,East,96,0.0,4.0,39,0.00,,,0.00,WUHU216DAVISVP2,2013-10-11 20:14:00,
2013-10-11 13:19:00,74.3,47.6,30.00,SSW,210,0.0,4.0,39,0.00,,,0.00,WUHU216DAVISVP2,2013-10-11 20:19:00,
2013-10-11 13:24:00,74.0,50.0,29.99,West,273,0.0,4.0,43,0.00,,,0.00,WUHU216DAVISVP2,2013-10-11 20:24:00,
2013-10-11 13:29:00,74.5,49.8,29.99,NW,312,0.0,7.0,42,0.00,,,0.00,WUHU216DAVISVP2,2013-10-11 20:29:00,
2013-10-11 13:34:00,74.4,49.1,29.99,WNW,299,6.0,7.0,41,0.00,,,0.00,WUHU216DAVISVP2,2013-10-11 20:34:00,
2013-10-11 13:39:00,74.1,48.1,29.99,NW,308,6.0,9.0,40,0.00,,,0.00,WUHU216DAVISVP2,2013-10-11 20:39:00,
2013-10-11 13:44:00,74.0,48.0,29.99,NW,304,1.0,9.0,40,0.00,,,0.00,WUHU216DAVISVP2,2013-10-11 20:44:00,
2013-10-11 13:49:00,74.5,49.2,29.99,NW,318,0.0,8.0,41,0.00,,,0.00,WUHU216DAVISVP2,2013-10-11 20:49:00,
2013-10-11 13:54:00,74.9,50.2,29.99,NW,318,2.0,7.0,42,0.00,,,0.00,WUHU216DAVISVP2,2013-10-11 20:54:00,
2013-10-11 13:59:00,74.0,47.4,29.98,WNW,288,0.0,6.0,39,0.00,,,0.00,WUHU216DAVISVP2,2013-10-11 20:59:00,
2013-10-11 14:04:00,74.7,48.7,29.98,WNW,287,0.0,6.0,40,0.00,,,0.00,WUHU216DAVISVP2,2013-10-11 21:04:00,
2013-10-11 14:09:00,75.1,48.3,29.98,NNW,327,1.0,6.0,39,0.00,,,0.00,WUHU216DAVISVP2,2013-10-11 21:09:00,
2013-10-11 14:14:00,75.1,49.0,29.98,NW,313,0.0,7.0,40,0.00,,,0.00,WUHU216DAVISVP2,2013-10-11 21:14:00,
2013-10-11 14:19:00,74.5,47.8,29.97,WNW,302,0.0,8.0,39,0.00,,,0.00,WUHU216DAVISVP2,2013-10-11 21:19:00,
2013-10-11 14:24:00,74.6,48.7,29.97,NW,323,5.0,9.0,40,0.00,,,0.00,WUHU216DAVISVP2,2013-10-11 21:24:00,
2013-10-11 14:29:00,74.3,47.7,29.97,WNW,298,5.0,9.0,39,0.00,,,0.00,WUHU216DAVISVP2,2013-10-11 21:29:00,
2013-10-11 14:34:00,74.5,47.9,29.97,WNW,284,0.0,7.0,39,0.00,,,0.00,WUHU216DAVISVP2,2013-10-11 21:34:00,
2013-10-11 14:39:00,75.2,47.7,29.97,NNW,334,0.0,7.0,38,0.00,,,0.00,WUHU216DAVISVP2,2013-10-11 21:39:00,
2013-10-11 14:44:00,75.2,47.7,29.97,WNW,301,10.0,10.0,38,0.00,,,0.00,WUHU216DAVISVP2,2013-10-11 21:44:00,
2013-10-11 14:49:00,75.2,47.8,29.97,NW,320,3.0,11.0,38,0.00,,,0.00,WUHU216DAVISVP2,2013-10-11 21:49:00,
2013-10-11 14:59:00,76.1,49.2,29.96,NNE,14,1.0,8.0,39,0.00,,,0.00,WUHU216DAVISVP2,2013-10-11 21:59:00,
2013-10-11 15:04:00,76.0,48.4,29.96,North,5,0.0,8.0,38,0.00,,,0.00,WUHU216DAVISVP2,2013-10-11 22:04:00,
2013-10-11 15:09:00,76.1,48.5,29.96,NW,312,6.0,10.0,38,0.00,,,0.00,WUHU216DAVISVP2,2013-10-11 22:09:00,
2013-10-11 15:14:00,75.5,48.7,29.95,North,9,3.0,10.0,39,0.00,,,0.00,WUHU216DAVISVP2,2013-10-11 22:14:00,
2013-10-11 15:19:00,75.5,48.7,29.95,NNW,342,2.0,7.0,39,0.00,,,0.00,WUHU216DAVISVP2,2013-10-11 22:19:00,
2013-10-11 15:24:00,75.5,48.1,29.95,North,355,0.0,7.0,38,0.00,,,0.00,WUHU216DAVISVP2,2013-10-11 22:24:00,
2013-10-11 15:29:00,75.9,48.5,29.95,NNE,12,0.0,5.0,38,0.00,,,0.00,WUHU216DAVISVP2,2013-10-11 22:29:00,
2013-10-11 15:34:00,75.8,48.4,29.95,North,355,2.0,6.0,38,0.00,,,0.00,WUHU216DAVISVP2,2013-10-11 22:34:00,
2013-10-11 15:39:00,75.3,47.2,29.95,NW,305,3.0,7.0,37,0.00,,,0.00,WUHU216DAVISVP2,2013-10-11 22:39:00,
2013-10-11 15:44:00,75.2,47.8,29.95,NW,321,5.0,8.0,38,0.00,,,0.00,WUHU216DAVISVP2,2013-10-11 22:44:00,
2013-10-11 15:49:00,75.5,48.0,29.95,NNW,327,1.0,9.0,38,0.00,,,0.00,WUHU216DAVISVP2,2013-10-11 22:49:00,
2013-10-11 15:54:00,75.3,47.8,29.95,NNW,336,5.0,9.0,38,0.00,,,0.00,WUHU216DAVISVP2,2013-10-11 22:54:00,
2013-10-11 15:59:00,75.1,47.6,29.95,NNW,336,0.0,8.0,38,0.00,,,0.00,WUHU216DAVISVP2,2013-10-11 22:59:00,
2013-10-11 16:04:00,75.3,48.5,29.94,NNW,339,2.0,6.0,39,0.00,,,0.00,WUHU216DAVISVP2,2013-10-11 23:04:00,
2013-10-11 16:09:00,75.3,47.8,29.94,NNW,339,0.0,6.0,38,0.00,,,0.00,WUHU216DAVISVP2,2013-10-11 23:09:00,
2013-10-11 16:14:00,75.6,48.1,29.94,NNW,340,4.0,5.0,38,0.00,,,0.00,WUHU216DAVISVP2,2013-10-11 23:14:00,
2013-10-11 16:19:00,75.6,48.1,29.94,NNW,337,3.0,7.0,38,0.00,,,0.00,WUHU216DAVISVP2,2013-10-11 23:19:00,
2013-10-11 16:24:00,75.3,47.8,29.94,NNW,337,0.0,7.0,38,0.00,,,0.00,WUHU216DAVISVP2,2013-10-11 23:24:00,
2013-10-11 16:29:00,75.4,47.9,29.94,NW,309,3.0,8.0,38,0.00,,,0.00,WUHU216DAVISVP2,2013-10-11 23:29:00,
2013-10-11 16:34:00,75.2,47.7,29.93,NW,309,4.0,8.0,38,0.00,,,0.00,WUHU216DAVISVP2,2013-10-11 23:34:00,
2013-10-11 16:39:00,74.9,46.7,29.93,WNW,300,3.0,6.0,37,0.00,,,0.00,WUHU216DAVISVP2,2013-10-11 23:39:00,
2013-10-11 16:44:00,75.0,48.2,29.93,NW,316,5.0,5.0,39,0.00,,,0.00,WUHU216DAVISVP2,2013-10-11 23:44:00,
2013-10-11 16:49:00,75.1,48.3,29.93,NW,326,1.0,8.0,39,0.00,,,0.00,WUHU216DAVISVP2,2013-10-11 23:49:00,
2013-10-11 16:54:00,75.3,47.8,29.93,NNW,329,4.0,8.0,38,0.00,,,0.00,WUHU216DAVISVP2,2013-10-11 23:54:00,
2013-10-11 16:59:00,75.1,47.6,29.93,NW,324,0.0,7.0,38,0.00,,,0.00,WUHU216DAVISVP2,2013-10-11 23:59:00,
2013-10-11 17:04:00,74.8,48.1,29.93,NW,325,0.0,6.0,39,0.00,,,0.00,WUHU216DAVISVP2,2013-10-12 00:04:00,
2013-10-11 17:09:00,74.7,48.0,29.93,NW,324,0.0,6.0,39,0.00,,,0.00,WUHU216DAVISVP2,2013-10-12 00:09:00,
2013-10-11 17:14:00,74.6,47.9,29.93,NNW,327,0.0,7.0,39,0.00,,,0.00,WUHU216DAVISVP2,2013-10-12 00:14:00,
2013-10-11 17:19:00,74.5,47.8,29.93,NNW,327,0.0,7.0,39,0.00,,,0.00,WUHU216DAVISVP2,2013-10-12 00:19:00,
2013-10-11 17:24:00,74.4,48.5,29.93,NNW,333,3.0,6.0,40,0.00,,,0.00,WUHU216DAVISVP2,2013-10-12 00:24:00,
2013-10-11 17:29:00,74.3,47.7,29.93,NNW,328,4.0,6.0,39,0.00,,,0.00,WUHU216DAVISVP2,2013-10-12 00:29:00,
2013-10-11 17:34:00,74.3,47.7,29.93,NNW,328,3.0,6.0,39,0.00,,,0.00,WUHU216DAVISVP2,2013-10-12 00:34:00,
2013-10-11 17:39:00,74.2,48.3,29.93,NNW,328,1.0,5.0,40,0.00,,,0.00,WUHU216DAVISVP2,2013-10-12 00:39:00,
2013-10-11 17:44:00,73.9,48.7,29.93,NNW,328,4.0,4.0,41,0.00,,,0.00,WUHU216DAVISVP2,2013-10-12 00:44:00,
2013-10-11 17:49:00,73.7,48.5,29.93,NNW,328,2.0,6.0,41,0.00,,,0.00,WUHU216DAVISVP2,2013-10-12 00:49:00,
2013-10-11 17:54:00,73.5,48.4,29.93,NNW,328,0.0,6.0,41,0.00,,,0.00,WUHU216DAVISVP2,2013-10-12 00:54:00,
2013-10-11 17:59:00,73.1,48.6,29.93,NNW,328,0.0,6.0,42,0.00,,,0.00,WUHU216DAVISVP2,2013-10-12 00:59:00,
2013-10-11 18:04:00,72.6,48.8,29.93,NNW,328,0.0,0.0,43,0.00,,,0.00,WUHU216DAVISVP2,2013-10-12 01:04:00,
2013-10-11 18:09:00,72.0,48.2,29.92,NNW,328,0.0,1.0,43,0.00,,,0.00,WUHU216DAVISVP2,2013-10-12 01:09:00,
2013-10-11 18:14:00,71.4,48.9,29.92,NNW,328,0.0,1.0,45,0.00,,,0.00,WUHU216DAVISVP2,2013-10-12 01:14:00,
2013-10-11 18:19:00,71.0,48.6,29.92,NNW,328,0.0,1.0,45,0.00,,,0.00,WUHU216DAVISVP2,2013-10-12 01:19:00,
2013-10-11 18:24:00,70.6,48.8,29.93,NNW,328,0.0,3.0,46,0.00,,,0.00,WUHU216DAVISVP2,2013-10-12 01:24:00,
2013-10-11 18:29:00,70.0,49.4,29.92,NNW,328,0.0,3.0,48,0.00,,,0.00,WUHU216DAVISVP2,2013-10-12 01:29:00,
2013-10-11 18:34:00,69.3,49.4,29.92,NNW,328,0.0,0.0,49,0.00,,,0.00,WUHU216DAVISVP2,2013-10-12 01:34:00,
2013-10-11 18:39:00,68.7,49.9,29.92,NNW,328,1.0,2.0,51,0.00,,,0.00,WUHU216DAVISVP2,2013-10-12 01:39:00,
2013-10-11 18:44:00,68.3,49.5,29.92,NNW,328,0.0,2.0,51,0.00,,,0.00,WUHU216DAVISVP2,2013-10-12 01:44:00,
2013-10-11 18:49:00,67.8,50.1,29.92,NNW,328,0.0,2.0,53,0.00,,,0.00,WUHU216DAVISVP2,2013-10-12 01:49:00,
2013-10-11 18:54:00,67.2,50.1,29.92,NNW,328,0.0,1.0,54,0.00,,,0.00,WUHU216DAVISVP2,2013-10-12 01:54:00,
2013-10-11 18:59:00,66.6,50.0,29.92,NNW,328,0.0,0.0,55,0.00,,,0.00,WUHU216DAVISVP2,2013-10-12 01:59:00,
2013-10-11 19:04:00,66.1,49.6,29.92,NNW,328,0.0,1.0,55,0.00,,,0.00,WUHU216DAVISVP2,2013-10-12 02:04:00,
2013-10-11 19:09:00,65.9,49.9,29.92,NNW,328,0.0,1.0,56,0.00,,,0.00,WUHU216DAVISVP2,2013-10-12 02:09:00,
2013-10-11 19:14:00,65.6,49.6,29.93,NNW,328,0.0,0.0,56,0.00,,,0.00,WUHU216DAVISVP2,2013-10-12 02:14:00,
2013-10-11 19:19:00,65.0,50.0,29.93,NNW,328,0.0,0.0,58,0.00,,,0.00,WUHU216DAVISVP2,2013-10-12 02:19:00,
2013-10-11 19:24:00,64.7,49.7,29.93,NNW,328,0.0,2.0,58,0.00,,,0.00,WUHU216DAVISVP2,2013-10-12 02:24:00,
2013-10-11 19:29:00,64.3,49.8,29.93,NNW,328,0.0,2.0,59,0.00,,,0.00,WUHU216DAVISVP2,2013-10-12 02:29:00,
2013-10-11 19:34:00,64.0,49.5,29.93,NNW,328,0.0,0.0,59,0.00,,,0.00,WUHU216DAVISVP2,2013-10-12 02:34:00,
2013-10-11 19:39:00,63.8,49.6,29.93,NNW,328,0.0,0.0,60,0.00,,,0.00,WUHU216DAVISVP2,2013-10-12 02:39:00,
2013-10-11 19:44:00,63.5,49.8,29.93,NNW,328,0.0,0.0,61,0.00,,,0.00,WUHU216DAVISVP2,2013-10-12 02:44:00,
2013-10-11 19:49:00,63.1,49.4,29.93,NNW,328,0.0,1.0,61,0.00,,,0.00,WUHU216DAVISVP2,2013-10-12 02:49:00,
2013-10-11 19:54:00,62.8,49.6,29.93,NNW,328,0.0,1.0,62,0.00,,,0.00,WUHU216DAVISVP2,2013-10-12 02:54:00,
2013-10-11 19:59:00,62.4,49.6,29.93,NNW,328,0.0,1.0,63,0.00,,,0.00,WUHU216DAVISVP2,2013-10-12 02:59:00,
2013-10-11 20:04:00,62.0,49.7,29.94,NNW,328,0.0,0.0,64,0.00,,,0.00,WUHU216DAVISVP2,2013-10-12 03:04:00,
2013-10-11 20:09:00,61.8,49.9,29.94,NNW,328,0.0,0.0,65,0.00,,,0.00,WUHU216DAVISVP2,2013-10-12 03:09:00,
2013-10-11 20:15:00,61.6,49.7,29.94,NNW,328,0.0,0.0,65,0.00,,,0.00,WUHU216DAVISVP2,2013-10-12 03:15:00,
2013-10-11 20:20:00,61.3,49.6,29.94,NNW,328,0.0,0.0,65,0.00,,,0.00,WUHU216DAVISVP2,2013-10-12 03:20:00,
2013-10-11 20:25:00,61.0,49.7,29.94,NNW,328,0.0,0.0,66,0.00,,,0.00,WUHU216DAVISVP2,2013-10-12 03:25:00,
2013-10-11 20:29:00,60.7,49.4,29.94,NNW,328,0.0,0.0,66,0.00,,,0.00,WUHU216DAVISVP2,2013-10-12 03:29:00,
2013-10-11 20:35:00,60.5,49.6,29.94,NNW,328,0.0,0.0,67,0.00,,,0.00,WUHU216DAVISVP2,2013-10-12 03:35:00,
2013-10-11 20:40:00,60.4,49.5,29.94,NNW,328,0.0,0.0,67,0.00,,,0.00,WUHU216DAVISVP2,2013-10-12 03:40:00,
2013-10-11 20:45:00,60.3,49.4,29.94,NNW,328,0.0,0.0,67,0.00,,,0.00,WUHU216DAVISVP2,2013-10-12 03:45:00,
2013-10-11 20:50:00,60.3,49.4,29.94,NNW,328,0.0,0.0,67,0.00,,,0.00,WUHU216DAVISVP2,2013-10-12 03:50:00,
2013-10-11 20:55:00,60.1,49.6,29.94,NNW,328,0.0,0.0,68,0.00,,,0.00,WUHU216DAVISVP2,2013-10-12 03:55:00,
2013-10-11 21:00:00,59.8,49.4,29.94,NNW,328,0.0,0.0,68,0.00,,,0.00,WUHU216DAVISVP2,2013-10-12 04:00:00,
2013-10-11 21:05:00,59.2,49.2,29.95,NNW,328,0.0,0.0,69,0.00,,,0.00,WUHU216DAVISVP2,2013-10-12 04:05:00,
2013-10-11 21:10:00,58.6,49.4,29.95,NNW,328,0.0,0.0,71,0.00,,,0.00,WUHU216DAVISVP2,2013-10-12 04:10:00,
2013-10-11 21:15:00,58.5,49.3,29.95,NNW,328,0.0,0.0,71,0.00,,,0.00,WUHU216DAVISVP2,2013-10-12 04:15:00,
2013-10-11 21:20:00,58.3,49.4,29.95,NNW,328,0.0,0.0,72,0.00,,,0.00,WUHU216DAVISVP2,2013-10-12 04:20:00,
2013-10-11 21:25:00,58.1,48.9,29.95,NNW,328,0.0,0.0,71,0.00,,,0.00,WUHU216DAVISVP2,2013-10-12 04:25:00,
2013-10-11 21:30:00,58.2,49.0,29.95,NNW,328,0.0,0.0,71,0.00,,,0.00,WUHU216DAVISVP2,2013-10-12 04:30:00,
2013-10-11 21:35:00,58.1,49.2,29.95,NNW,328,0.0,0.0,72,0.00,,,0.00,WUHU216DAVISVP2,2013-10-12 04:35:00,
2013-10-11 21:40:00,58.1,49.2,29.95,NNW,328,0.0,0.0,72,0.00,,,0.00,WUHU216DAVISVP2,2013-10-12 04:40:00,
2013-10-11 21:45:00,58.1,49.2,29.96,NNW,328,0.0,0.0,72,0.00,,,0.00,WUHU216DAVISVP2,2013-10-12 04:45:00,
2013-10-11 21:50:00,57.8,48.9,29.96,NNW,328,0.0,0.0,72,0.00,,,0.00,WUHU216DAVISVP2,2013-10-12 04:50:00,
2013-10-11 21:55:00,57.7,49.2,29.96,NNW,328,0.0,0.0,73,0.00,,,0.00,WUHU216DAVISVP2,2013-10-12 04:55:00,
2013-10-11 22:00:00,57.6,48.8,29.96,NNW,328,0.0,0.0,72,0.00,,,0.00,WUHU216DAVISVP2,2013-10-12 05:00:00,
2013-10-11 22:05:00,57.5,48.7,29.95,NNW,328,0.0,0.0,72,0.00,,,0.00,WUHU216DAVISVP2,2013-10-12 05:05:00,
2013-10-11 22:10:00,57.3,48.8,29.95,NNW,328,0.0,0.0,73,0.00,,,0.00,WUHU216DAVISVP2,2013-10-12 05:10:00,
2013-10-11 22:15:00,57.3,49.2,29.95,NNW,328,0.0,0.0,74,0.00,,,0.00,WUHU216DAVISVP2,2013-10-12 05:15:00,
2013-10-11 22:20:00,57.2,49.7,29.96,NNW,328,0.0,0.0,76,0.00,,,0.00,WUHU216DAVISVP2,2013-10-12 05:20:00,
2013-10-11 22:25:00,57.0,48.8,29.95,NNW,328,0.0,0.0,74,0.00,,,0.00,WUHU216DAVISVP2,2013-10-12 05:25:00,
2013-10-11 22:30:00,56.6,48.8,29.95,NNW,328,0.0,0.0,75,0.00,,,0.00,WUHU216DAVISVP2,2013-10-12 05:30:00,
2013-10-11 22:35:00,56.2,48.8,29.95,NNW,328,0.0,0.0,76,0.00,,,0.00,WUHU216DAVISVP2,2013-10-12 05:35:00,
2013-10-11 22:40:00,56.1,48.7,29.95,NNW,328,0.0,0.0,76,0.00,,,0.00,WUHU216DAVISVP2,2013-10-12 05:40:00,
2013-10-11 22:45:00,55.8,48.4,29.95,NNW,328,0.0,0.0,76,0.00,,,0.00,WUHU216DAVISVP2,2013-10-12 05:45:00,
2013-10-11 22:50:00,55.5,48.1,29.95,NNW,328,0.0,0.0,76,0.00,,,0.00,WUHU216DAVISVP2,2013-10-12 05:50:00,
2013-10-11 22:55:00,55.4,48.4,29.95,NNW,328,0.0,0.0,77,0.00,,,0.00,WUHU216DAVISVP2,2013-10-12 05:55:00,
2013-10-11 23:00:00,55.2,48.2,29.96,NNW,328,0.0,0.0,77,0.00,,,0.00,WUHU216DAVISVP2,2013-10-12 06:00:00,
2013-10-11 23:05:00,55.0,48.3,29.96,NNW,328,0.0,0.0,78,0.00,,,0.00,WUHU216DAVISVP2,2013-10-12 06:05:00,
2013-10-11 23:10:00,54.9,48.2,29.96,NNW,328,0.0,0.0,78,0.00,,,0.00,WUHU216DAVISVP2,2013-10-12 06:10:00,
2013-10-11 23:15:00,54.8,48.1,29.96,NNW,328,0.0,0.0,78,0.00,,,0.00,WUHU216DAVISVP2,2013-10-12 06:15:00,
2013-10-11 23:20:00,54.7,48.4,29.96,NNW,328,0.0,0.0,79,0.00,,,0.00,WUHU216DAVISVP2,2013-10-12 06:20:00,
2013-10-11 23:25:00,54.4,48.1,29.95,NNW,328,0.0,0.0,79,0.00,,,0.00,WUHU216DAVISVP2,2013-10-12 06:25:00,
2013-10-11 23:30:00,54.3,48.0,29.95,NNW,328,0.0,0.0,79,0.00,,,0.00,WUHU216DAVISVP2,2013-10-12 06:30:00,
2013-10-11 23:35:00,54.6,48.3,29.96,NNW,328,1.0,4.0,79,0.00,,,0.00,WUHU216DAVISVP2,2013-10-12 06:35:00,
2013-10-11 23:40:00,54.7,48.4,29.96,NNW,328,2.0,4.0,79,0.00,,,0.00,WUHU216DAVISVP2,2013-10-12 06:40:00,
2013-10-11 23:45:00,55.2,48.2,29.96,NNW,328,2.0,3.0,77,0.00,,,0.00,WUHU216DAVISVP2,2013-10-12 06:45:00,
2013-10-11 23:50:00,55.5,48.1,29.96,NNW,328,0.0,3.0,76,0.00,,,0.00,WUHU216DAVISVP2,2013-10-12 06:50:00,
2013-10-11 23:55:00,55.8,48.1,29.96,NNW,328,0.0,3.0,75,0.00,,,0.00,WUHU216DAVISVP2,2013-10-12 06:55:00,